Location: Bishopstone
(51.0167°N, 1.9000°W)
Time: 00:24:20
(UTC+00:00)

CZ-4C R/B - Pass Details

Date: 16 September 2019
Orbit: 654 x 1348 km, 63.4° (Epoch: 15 October)

Event Time Altitude Azimuth Distance (km) Brightness Sun altitude
Rises 23:03:12 0° 312° (NW) 3,640 6.3 -35.0°
Reaches altitude 10° 23:05:43 10° 318° (NW) 2,792 5.5 -35.2°
Maximum altitude 23:12:13 49° 33° (NNE) 1,437 3.4 -35.5°
Enters shadow 23:12:50 48° 48° (NE) 1,470 3.4 -35.5°
